This demonstration page uses our WeatherBlox Daily Observations layout. Learn more.

41.55636, -103.73856

Hourly Observations for November 30, 2015

Temp ( °F °C ) Dew Point ( °F °C ) Humidity (%) Winds ( mph kmh ) Pressure ( in mb ) Visibility ( mi km ) Precip ( " mm )
12:53 am 00:53 Cloudy 23 -5 18 -8 80 80 NW 7 11 30.18 1022 10 16.09344 0 0
1:53 am 01:53 Cloudy 19 -7 16 -9 86 86 NW 6 9 30.24 1024 10 16.09344 0 0
2:53 am 02:53 Partly Cloudy 19 -7 16 -9 86 86 NW 8 13 30.24 1024 10 16.09344 0 0
3:53 am 03:53 Mostly Cloudy 18 -8 14 -10 86 86 WNW 7 11 30.21 1023 10 16.09344 0 0
4:53 am 04:53 Cloudy 18 -8 14 -10 86 86 WNW 8 13 30.21 1023 10 16.09344 0 0
5:53 am 05:53 Cloudy 18 -8 14 -10 86 86 WNW 9 15 30.21 1023 10 16.09344 0 0
6:53 am 06:53 Mostly Cloudy 18 -8 14 -10 86 86 WNW 9 15 30.21 1023 10 16.09344 0 0
7:53 am 07:53 Cloudy 19 -7 14 -10 79 79 WNW 12 19 30.18 1022 10 16.09344 0 0
8:53 am 08:53 Mostly Cloudy 19 -7 14 -10 79 79 WNW 12 19 30.18 1022 10 16.09344 0 0
9:53 am 09:53 Partly Cloudy 21 -6 14 -10 74 74 WNW 10 17 30.18 1022 10 16.09344 0 0
10:53 am 10:53 Mostly Sunny 25 -4 14 -10 63 63 WNW 15 24 30.15 1021 10 16.09344 0 0
11:53 am 11:53 Mostly Sunny 28 -2 14 -10 55 55 WNW 14 22 30.06 1018 10 16.09344 0 0
12:53 pm 12:53 Sunny 30 -1 16 -9 55 55 WNW 17 28 30.06 1018 10 16.09344 0 0
1:53 pm 13:53 Sunny 32 0 16 -9 51 51 WNW 16 26 30 1016 10 16.09344 0 0
2:53 pm 14:53 Mostly Sunny 30 -1 16 -9 55 55 NW 18 30 30.03 1017 10 16.09344 0 0
3:53 pm 15:53 Sunny 30 -1 16 -9 55 55 WNW 10 17 30.03 1017 10 16.09344 0 0
4:53 pm 16:53 Clear 28 -2 16 -9 59 59 WNW 13 20 30.03 1017 10 16.09344 0 0
5:53 pm 17:53 Cloudy 27 -3 16 -9 64 64 WNW 9 15 30.06 1018 10 16.09344 0 0
6:53 pm 18:53 Cloudy 25 -4 18 -8 74 74 WNW 10 17 30.06 1018 10 16.09344 0 0
7:53 pm 19:53 Mostly Clear 25 -4 16 -9 69 69 WNW 12 19 30.03 1017 10 16.09344 0 0
8:53 pm 20:53 Cloudy 27 -3 16 -9 64 64 WNW 13 20 29.97 1015 10 16.09344 0 0
9:53 pm 21:53 Mostly Cloudy 27 -3 16 -9 64 64 WNW 15 24 29.97 1015 10 16.09344 0 0
10:53 pm 22:53 Cloudy 28 -2 14 -10 55 55 WNW 20 31 29.97 1015 10 16.09344 0 0
11:53 pm 23:53 Cloudy 28 -2 14 -10 55 55 WNW 18 30 29.94 1014 10 16.09344 0 0

Powered by AerisWeather